Wetterdaten: Dienstag, 16.09.2014
Datum Zeit Temperatur Luftfeuchte Luftdruck Regen Wind Richtung Richtung Sonnenschein ET UV Solar Taupunkt Windchill Windben
16.09.2014 00:00 15,5 C 94 % 1016,3 hPa 0,0 l/m 0,0 km/h (0 Bft) O-NO 57 0 min 0,000 mm 0,0 UV-I 0 W/m 14,5 C 15,5 C 1,6 km/h (1 Bft)
16.09.2014 00:05 15,5 C 94 % 1016,2 hPa 0,0 l/m 0,0 km/h (0 Bft) O-NO 57 0 min 0,000 mm 0,0 UV-I 0 W/m 14,5 C 15,5 C 0,0 km/h (0 Bft)
16.09.2014 00:10 15,6 C 94 % 1016,2 hPa 0,0 l/m 0,1 km/h (0 Bft) O-NO 57 0 min 0,000 mm 0,0 UV-I 0 W/m 14,6 C 15,6 C 1,6 km/h (1 Bft)
16.09.2014 00:15 15,6 C 94 % 1016,1 hPa 0,0 l/m 0,3 km/h (0 Bft) O-NO 57 0 min 0,000 mm 0,0 UV-I 0 W/m 14,6 C 15,6 C 3,2 km/h (1 Bft)
16.09.2014 00:20 15,5 C 93 % 1016,1 hPa 0,0 l/m 0,1 km/h (0 Bft) O-NO 57 0 min 0,000 mm 0,0 UV-I 0 W/m 14,4 C 15,5 C 1,6 km/h (1 Bft)
16.09.2014 00:25 15,5 C 93 % 1016,0 hPa 0,0 l/m 0,0 km/h (0 Bft) O-NO 57 0 min 0,000 mm 0,0 UV-I 0 W/m 14,4 C 15,5 C 1,6 km/h (1 Bft)
16.09.2014 00:30 15,6 C 93 % 1016,0 hPa 0,0 l/m 0,0 km/h (0 Bft) O-NO 57 0 min 0,000 mm 0,0 UV-I 0 W/m 14,5 C 15,6 C 1,6 km/h (1 Bft)
16.09.2014 00:35 15,6 C 94 % 1016,1 hPa 0,0 l/m 0,0 km/h (0 Bft) O-NO 57 0 min 0,000 mm 0,0 UV-I 0 W/m 14,6 C 15,6 C 1,6 km/h (1 Bft)
16.09.2014 00:40 15,6 C 93 % 1016,1 hPa 0,0 l/m 0,1 km/h (0 Bft) O-NO 57 0 min 0,000 mm 0,0 UV-I 0 W/m 14,5 C 15,6 C 1,6 km/h (1 Bft)
16.09.2014 00:45 15,5 C 93 % 1016,1 hPa 0,0 l/m 0,3 km/h (0 Bft) O-NO 57 0 min 0,000 mm 0,0 UV-I 0 W/m 14,4 C 15,5 C 4,8 km/h (1 Bft)
16.09.2014 00:50 15,4 C 93 % 1016,0 hPa 0,0 l/m 0,0 km/h (0 Bft) O-NO 57 0 min 0,000 mm 0,0 UV-I 0 W/m 14,3 C 15,4 C 1,6 km/h (1 Bft)
16.09.2014 00:55 15,4 C 93 % 1016,0 hPa 0,0 l/m 0,0 km/h (0 Bft) O-NO 57 0 min 0,000 mm 0,0 UV-I 0 W/m 14,3 C 15,4 C 1,6 km/h (1 Bft)
16.09.2014 01:00 15,4 C 93 % 1016,0 hPa 0,0 l/m 0,0 km/h (0 Bft) O-NO 57 0 min 0,000 mm 0,0 UV-I 0 W/m 14,3 C 15,4 C 0,0 km/h (0 Bft)
16.09.2014 01:05 15,4 C 93 % 1015,8 hPa 0,0 l/m 0,0 km/h (0 Bft) O-NO 57 0 min 0,000 mm 0,0 UV-I 0 W/m 14,3 C 15,4 C 1,6 km/h (1 Bft)
16.09.2014 01:09 15,4 C 93 % 1015,9 hPa 0,0 l/m 0,0 km/h (0 Bft) O-NO 57 0 min 0,000 mm 0,0 UV-I 0 W/m 14,3 C 15,4 C 1,6 km/h (1 Bft)
16.09.2014 01:10 15,3 C 93 % 1015,8 hPa 0,0 l/m 0,1 km/h (0 Bft) O-NO 57 0 min 0,000 mm 0,0 UV-I 0 W/m 14,2 C 15,3 C 1,6 km/h (1 Bft)
16.09.2014 01:15 15,3 C 93 % 1015,8 hPa 0,0 l/m 0,8 km/h (0 Bft) O-NO 57 0 min 0,000 mm 0,0 UV-I 0 W/m 14,2 C 15,3 C 4,8 km/h (1 Bft)
16.09.2014 01:20 15,3 C 93 % 1015,9 hPa 0,0 l/m 1,4 km/h (1 Bft) O-NO 57 0 min 0,000 mm 0,0 UV-I 0 W/m 14,2 C 15,3 C 4,8 km/h (1 Bft)
16.09.2014 01:25 15,2 C 93 % 1016,0 hPa 0,0 l/m 0,1 km/h (0 Bft) O-NO 57 0 min 0,000 mm 0,0 UV-I 0 W/m 14,1 C 15,2 C 1,6 km/h (1 Bft)
16.09.2014 01:30 15,2 C 93 % 1015,9 hPa 0,0 l/m 0,0 km/h (0 Bft) O-NO 57 0 min 0,000 mm 0,0 UV-I 0 W/m 14,1 C 15,2 C 1,6 km/h (1 Bft)
16.09.2014 01:35 15,1 C 93 % 1015,9 hPa 0,0 l/m 0,0 km/h (0 Bft) O-NO 57 0 min 0,000 mm 0,0 UV-I 0 W/m 14,0 C 15,1 C 1,6 km/h (1 Bft)
16.09.2014 01:40 14,9 C 93 % 1015,9 hPa 0,0 l/m 0,0 km/h (0 Bft) O-NO 57 0 min 0,000 mm 0,0 UV-I 0 W/m 13,8 C 14,9 C 0,0 km/h (0 Bft)
16.09.2014 01:45 14,9 C 93 % 1015,9 hPa 0,0 l/m 0,0 km/h (0 Bft) O-NO 57 0 min 0,000 mm 0,0 UV-I 0 W/m 13,8 C 14,9 C 1,6 km/h (1 Bft)
16.09.2014 01:50 14,9 C 94 % 1015,8 hPa 0,0 l/m 0,0 km/h (0 Bft) O-NO 57 0 min 0,000 mm 0,0 UV-I 0 W/m 13,9 C 14,9 C 0,0 km/h (0 Bft)
16.09.2014 01:55 14,9 C 94 % 1015,9 hPa 0,0 l/m 0,0 km/h (0 Bft) O-NO 57 0 min 0,000 mm 0,0 UV-I 0 W/m 13,9 C 14,9 C 1,6 km/h (1 Bft)
16.09.2014 02:00 14,8 C 94 % 1015,8 hPa 0,0 l/m 0,0 km/h (0 Bft) O-NO 57 0 min 0,000 mm 0,0 UV-I 0 W/m 13,8 C 14,8 C 0,0 km/h (0 Bft)
16.09.2014 02:05 14,7 C 94 % 1015,9 hPa 0,0 l/m 0,0 km/h (0 Bft) O-NO 57 0 min 0,000 mm 0,0 UV-I 0 W/m 13,7 C 14,7 C 0,0 km/h (0 Bft)
16.09.2014 02:10 14,6 C 93 % 1015,9 hPa 0,0 l/m 0,0 km/h (0 Bft) O-NO 57 0 min 0,000 mm 0,0 UV-I 0 W/m 13,5 C 14,6 C 0,0 km/h (0 Bft)
16.09.2014 02:15 14,5 C 93 % 1015,9 hPa 0,0 l/m 0,0 km/h (0 Bft) O-NO 57 0 min 0,000 mm 0,0 UV-I 0 W/m 13,4 C 14,5 C 0,0 km/h (0 Bft)
16.09.2014 02:20 14,3 C 93 % 1015,9 hPa 0,0 l/m 0,0 km/h (0 Bft) O-NO 57 0 min 0,000 mm 0,0 UV-I 0 W/m 13,2 C 14,3 C 0,0 km/h (0 Bft)
16.09.2014 02:25 14,2 C 93 % 1016,0 hPa 0,0 l/m 0,0 km/h (0 Bft) O-NO 57 0 min 0,000 mm 0,0 UV-I 0 W/m 13,1 C 14,2 C 0,0 km/h (0 Bft)
16.09.2014 02:30 14,0 C 93 % 1015,9 hPa 0,0 l/m 0,0 km/h (0 Bft) O-NO 57 0 min 0,000 mm 0,0 UV-I 0 W/m 12,9 C 14,0 C 0,0 km/h (0 Bft)
16.09.2014 02:35 13,8 C 93 % 1015,9 hPa 0,0 l/m 0,0 km/h (0 Bft) O-NO 57 0 min 0,000 mm 0,0 UV-I 0 W/m 12,7 C 13,8 C 0,0 km/h (0 Bft)
16.09.2014 02:40 13,7 C 93 % 1015,9 hPa 0,0 l/m 0,0 km/h (0 Bft) O-NO 57 0 min 0,000 mm 0,0 UV-I 0 W/m 12,6 C 13,7 C 0,0 km/h (0 Bft)
16.09.2014 02:45 13,7 C 93 % 1015,9 hPa 0,0 l/m 0,0 km/h (0 Bft) O-NO 57 0 min 0,000 mm 0,0 UV-I 0 W/m 12,6 C 13,7 C 0,0 km/h (0 Bft)
16.09.2014 02:50 13,4 C 93 % 1015,9 hPa 0,0 l/m 0,0 km/h (0 Bft) O-NO 57 0 min 0,000 mm 0,0 UV-I 0 W/m 12,3 C 13,4 C 1,6 km/h (1 Bft)
16.09.2014 02:55 13,2 C 93 % 1015,9 hPa 0,0 l/m 0,0 km/h (0 Bft) O-NO 57 0 min 0,000 mm 0,0 UV-I 0 W/m 12,1 C 13,2 C 1,6 km/h (1 Bft)
16.09.2014 03:00 13,1 C 94 % 1015,9 hPa 0,0 l/m 0,0 km/h (0 Bft) O-NO 57 0 min 0,000 mm 0,0 UV-I 0 W/m 12,2 C 13,1 C 0,0 km/h (0 Bft)
16.09.2014 03:05 13,0 C 94 % 1015,8 hPa 0,0 l/m 0,0 km/h (0 Bft) O-NO 57 0 min 0,000 mm 0,0 UV-I 0 W/m 12,1 C 13,0 C 0,0 km/h (0 Bft)
16.09.2014 03:10 12,9 C 94 % 1015,8 hPa 0,0 l/m 0,0 km/h (0 Bft) O-NO 57 0 min 0,000 mm 0,0 UV-I 0 W/m 12,0 C 12,9 C 0,0 km/h (0 Bft)
16.09.2014 03:15 12,9 C 94 % 1015,9 hPa 0,0 l/m 0,0 km/h (0 Bft) O-NO 57 0 min 0,000 mm 0,0 UV-I 0 W/m 12,0 C 12,9 C 0,0 km/h (0 Bft)
16.09.2014 03:20 12,9 C 95 % 1015,9 hPa 0,0 l/m 0,0 km/h (0 Bft) O-NO 57 0 min 0,000 mm 0,0 UV-I 0 W/m 12,1 C 12,9 C 0,0 km/h (0 Bft)
16.09.2014 03:25 12,8 C 95 % 1015,9 hPa 0,0 l/m 0,0 km/h (0 Bft) O-NO 57 0 min 0,000 mm 0,0 UV-I 0 W/m 12,0 C 12,8 C 0,0 km/h (0 Bft)
16.09.2014 03:30 12,8 C 95 % 1015,9 hPa 0,0 l/m 0,0 km/h (0 Bft) O-NO 57 0 min 0,000 mm 0,0 UV-I 0 W/m 12,0 C 12,8 C 0,0 km/h (0 Bft)
16.09.2014 03:35 12,7 C 94 % 1015,9 hPa 0,0 l/m 0,0 km/h (0 Bft) O-NO 57 0 min 0,000 mm 0,0 UV-I 0 W/m 11,8 C 12,7 C 0,0 km/h (0 Bft)
16.09.2014 03:40 12,7 C 95 % 1015,9 hPa 0,0 l/m 0,0 km/h (0 Bft) O-NO 57 0 min 0,000 mm 0,0 UV-I 0 W/m 11,9 C 12,7 C 0,0 km/h (0 Bft)
16.09.2014 03:45 12,6 C 95 % 1015,8 hPa 0,0 l/m 0,0 km/h (0 Bft) O-NO 57 0 min 0,000 mm 0,0 UV-I 0 W/m 11,8 C 12,6 C 0,0 km/h (0 Bft)
16.09.2014 03:50 12,6 C 95 % 1015,8 hPa 0,0 l/m 0,0 km/h (0 Bft) O-NO 57 0 min 0,000 mm 0,0 UV-I 0 W/m 11,8 C 12,6 C 0,0 km/h (0 Bft)
16.09.2014 03:55 12,5 C 95 % 1015,9 hPa 0,0 l/m 0,0 km/h (0 Bft) O-NO 57 0 min 0,000 mm 0,0 UV-I 0 W/m 11,7 C 12,5 C 0,0 km/h (0 Bft)
16.09.2014 04:00 12,4 C 95 % 1015,9 hPa 0,0 l/m 0,0 km/h (0 Bft) O-NO 57 0 min 0,000 mm 0,0 UV-I 0 W/m 11,6 C 12,4 C 0,0 km/h (0 Bft)
16.09.2014 04:05 12,3 C 95 % 1016,0 hPa 0,0 l/m 0,0 km/h (0 Bft) O-NO 57 0 min 0,000 mm 0,0 UV-I 0 W/m 11,5 C 12,3 C 0,0 km/h (0 Bft)
16.09.2014 04:10 12,2 C 95 % 1015,9 hPa 0,0 l/m 0,0 km/h (0 Bft) O-NO 57 0 min 0,000 mm 0,0 UV-I 0 W/m 11,4 C 12,2 C 0,0 km/h (0 Bft)
16.09.2014 04:15 12,2 C 95 % 1015,9 hPa 0,0 l/m 0,0 km/h (0 Bft) O-NO 57 0 min 0,000 mm 0,0 UV-I 0 W/m 11,4 C 12,2 C 0,0 km/h (0 Bft)
16.09.2014 04:20 12,2 C 95 % 1015,7 hPa 0,0 l/m 0,0 km/h (0 Bft) O-NO 57 0 min 0,000 mm 0,0 UV-I 0 W/m 11,4 C 12,2 C 0,0 km/h (0 Bft)
16.09.2014 04:25 12,2 C 95 % 1015,7 hPa 0,0 l/m 0,0 km/h (0 Bft) O-NO 57 0 min 0,000 mm 0,0 UV-I 0 W/m 11,4 C 12,2 C 0,0 km/h (0 Bft)
16.09.2014 04:30 12,2 C 95 % 1015,7 hPa 0,0 l/m 0,0 km/h (0 Bft) O-NO 57 0 min 0,000 mm 0,0 UV-I 0 W/m 11,4 C 12,2 C 0,0 km/h (0 Bft)
16.09.2014 04:35 12,1 C 95 % 1015,6 hPa 0,0 l/m 0,0 km/h (0 Bft) O-NO 57 0 min 0,000 mm 0,0 UV-I 0 W/m 11,3 C 12,1 C 0,0 km/h (0 Bft)
16.09.2014 04:40 12,1 C 95 % 1015,6 hPa 0,0 l/m 0,0 km/h (0 Bft) O-NO 57 0 min 0,000 mm 0,0 UV-I 0 W/m 11,3 C 12,1 C 0,0 km/h (0 Bft)
16.09.2014 04:45 12,0 C 95 % 1015,6 hPa 0,0 l/m 0,0 km/h (0 Bft) O-NO 57 0 min 0,000 mm 0,0 UV-I 0 W/m 11,2 C 12,0 C 0,0 km/h (0 Bft)
16.09.2014 04:50 12,0 C 95 % 1015,5 hPa 0,0 l/m 0,0 km/h (0 Bft) O-NO 57 0 min 0,000 mm 0,0 UV-I 0 W/m 11,2 C 12,0 C 0,0 km/h (0 Bft)
16.09.2014 04:55 11,9 C 95 % 1015,7 hPa 0,0 l/m 0,0 km/h (0 Bft) O-NO 57 0 min 0,000 mm 0,0 UV-I 0 W/m 11,1 C 11,9 C 0,0 km/h (0 Bft)
16.09.2014 05:00 11,9 C 95 % 1015,7 hPa 0,0 l/m 0,0 km/h (0 Bft) O-NO 57 0 min 0,000 mm 0,0 UV-I 0 W/m 11,1 C 11,9 C 1,6 km/h (1 Bft)
16.09.2014 05:05 11,8 C 95 % 1015,6 hPa 0,0 l/m 0,0 km/h (0 Bft) O-NO 57 0 min 0,000 mm 0,0 UV-I 0 W/m 11,0 C 11,8 C 0,0 km/h (0 Bft)
16.09.2014 05:10 11,8 C 95 % 1015,5 hPa 0,0 l/m 0,0 km/h (0 Bft) O-NO 57 0 min 0,000 mm 0,0 UV-I 0 W/m 11,0 C 11,8 C 0,0 km/h (0 Bft)
16.09.2014 05:15 11,8 C 95 % 1015,5 hPa 0,0 l/m 0,0 km/h (0 Bft) O-NO 57 0 min 0,000 mm 0,0 UV-I 0 W/m 11,0 C 11,8 C 0,0 km/h (0 Bft)
16.09.2014 05:20 11,8 C 95 % 1015,5 hPa 0,0 l/m 0,0 km/h (0 Bft) O-NO 57 0 min 0,000 mm 0,0 UV-I 0 W/m 11,0 C 11,8 C 0,0 km/h (0 Bft)
16.09.2014 05:25 11,7 C 95 % 1015,6 hPa 0,0 l/m 0,0 km/h (0 Bft) O-NO 57 0 min 0,000 mm 0,0 UV-I 0 W/m 10,9 C 11,7 C 0,0 km/h (0 Bft)
16.09.2014 05:30 11,7 C 95 % 1015,6 hPa 0,0 l/m 0,0 km/h (0 Bft) O-NO 57 0 min 0,000 mm 0,0 UV-I 0 W/m 10,9 C 11,7 C 0,0 km/h (0 Bft)
16.09.2014 05:35 11,7 C 95 % 1015,6 hPa 0,0 l/m 0,0 km/h (0 Bft) O-NO 57 0 min 0,000 mm 0,0 UV-I 0 W/m 10,9 C 11,7 C 0,0 km/h (0 Bft)
16.09.2014 05:40 11,6 C 95 % 1015,6 hPa 0,0 l/m 0,0 km/h (0 Bft) O-NO 57 0 min 0,000 mm 0,0 UV-I 0 W/m 10,8 C 11,6 C 0,0 km/h (0 Bft)
16.09.2014 05:45 11,6 C 95 % 1015,6 hPa 0,0 l/m 0,0 km/h (0 Bft) O-NO 57 0 min 0,000 mm 0,0 UV-I 0 W/m 10,8 C 11,6 C 0,0 km/h (0 Bft)
16.09.2014 05:50 11,5 C 95 % 1015,6 hPa 0,0 l/m 0,0 km/h (0 Bft) O-NO 57 0 min 0,000 mm 0,0 UV-I 0 W/m 10,7 C 11,5 C 0,0 km/h (0 Bft)
16.09.2014 05:55 11,4 C 95 % 1015,6 hPa 0,2 l/m 0,0 km/h (0 Bft) O-NO 57 0 min 0,000 mm 0,0 UV-I 0 W/m 10,6 C 11,4 C 0,0 km/h (0 Bft)
16.09.2014 06:00 11,4 C 95 % 1015,7 hPa 0,0 l/m 0,0 km/h (0 Bft) O-NO 57 0 min 0,000 mm 0,0 UV-I 0 W/m 10,6 C 11,4 C 1,6 km/h (1 Bft)
16.09.2014 06:05 11,4 C 95 % 1015,7 hPa 0,0 l/m 0,0 km/h (0 Bft) O-NO 57 0 min 0,000 mm 0,0 UV-I 0 W/m 10,6 C 11,4 C 0,0 km/h (0 Bft)
16.09.2014 06:10 11,3 C 95 % 1015,7 hPa 0,0 l/m 0,0 km/h (0 Bft) O-NO 57 0 min 0,000 mm 0,0 UV-I 0 W/m 10,5 C 11,3 C 0,0 km/h (0 Bft)
16.09.2014 06:15 11,3 C 95 % 1015,8 hPa 0,0 l/m 0,0 km/h (0 Bft) O-NO 57 0 min 0,000 mm 0,0 UV-I 0 W/m 10,5 C 11,3 C 0,0 km/h (0 Bft)
16.09.2014 06:20 11,3 C 96 % 1015,8 hPa 0,0 l/m 0,0 km/h (0 Bft) O-NO 57 0 min 0,000 mm 0,0 UV-I 0 W/m 10,7 C 11,3 C 0,0 km/h (0 Bft)
16.09.2014 06:25 11,3 C 96 % 1015,8 hPa 0,0 l/m 0,0 km/h (0 Bft) O-NO 57 0 min 0,000 mm 0,0 UV-I 0 W/m 10,7 C 11,3 C 0,0 km/h (0 Bft)
16.09.2014 06:30 11,3 C 96 % 1015,9 hPa 0,0 l/m 0,0 km/h (0 Bft) O-NO 57 0 min 0,000 mm 0,0 UV-I 0 W/m 10,7 C 11,3 C 0,0 km/h (0 Bft)
16.09.2014 06:35 11,3 C 96 % 1015,8 hPa 0,0 l/m 0,0 km/h (0 Bft) O-NO 57 0 min 0,000 mm 0,0 UV-I 0 W/m 10,7 C 11,3 C 0,0 km/h (0 Bft)
16.09.2014 06:40 11,4 C 96 % 1015,8 hPa 0,0 l/m 0,0 km/h (0 Bft) O-NO 57 0 min 0,000 mm 0,0 UV-I 0 W/m 10,8 C 11,4 C 0,0 km/h (0 Bft)
16.09.2014 06:45 11,4 C 96 % 1015,8 hPa 0,0 l/m 0,0 km/h (0 Bft) O-NO 57 0 min 0,000 mm 0,0 UV-I 0 W/m 10,8 C 11,4 C 0,0 km/h (0 Bft)
16.09.2014 06:50 11,4 C 96 % 1015,9 hPa 0,0 l/m 0,0 km/h (0 Bft) O-NO 57 0 min 0,000 mm 0,0 UV-I 0 W/m 10,8 C 11,4 C 0,0 km/h (0 Bft)
16.09.2014 06:55 11,4 C 96 % 1015,9 hPa 0,0 l/m 0,0 km/h (0 Bft) O-NO 57 0 min 0,000 mm 0,0 UV-I 0 W/m 10,8 C 11,4 C 0,0 km/h (0 Bft)
16.09.2014 07:00 11,5 C 96 % 1016,0 hPa 0,0 l/m 0,0 km/h (0 Bft) O-NO 57 0 min 0,000 mm 0,0 UV-I 0 W/m 10,9 C 11,5 C 0,0 km/h (0 Bft)
16.09.2014 07:05 11,6 C 96 % 1015,9 hPa 0,0 l/m 0,0 km/h (0 Bft) O-NO 57 0 min 0,000 mm 0,0 UV-I 0 W/m 11,0 C 11,6 C 0,0 km/h (0 Bft)
16.09.2014 07:10 11,6 C 96 % 1015,8 hPa 0,0 l/m 0,0 km/h (0 Bft) O-NO 57 0 min 0,000 mm 0,0 UV-I 0 W/m 11,0 C 11,6 C 0,0 km/h (0 Bft)
16.09.2014 07:15 11,7 C 96 % 1015,8 hPa 0,0 l/m 0,0 km/h (0 Bft) O-NO 57 0 min 0,000 mm 0,0 UV-I 3 W/m 11,1 C 11,7 C 0,0 km/h (0 Bft)
16.09.2014 07:20 11,8 C 96 % 1015,9 hPa 0,0 l/m 0,0 km/h (0 Bft) O-NO 57 0 min 0,000 mm 0,0 UV-I 8 W/m 11,2 C 11,8 C 0,0 km/h (0 Bft)
16.09.2014 07:25 11,8 C 96 % 1015,8 hPa 0,0 l/m 0,0 km/h (0 Bft) O-NO 57 0 min 0,000 mm 0,0 UV-I 13 W/m 11,2 C 11,8 C 0,0 km/h (0 Bft)
16.09.2014 07:30 11,8 C 96 % 1015,8 hPa 0,0 l/m 0,0 km/h (0 Bft) O-NO 57 0 min 0,000 mm 0,0 UV-I 19 W/m 11,2 C 11,8 C 0,0 km/h (0 Bft)
16.09.2014 07:35 11,8 C 96 % 1015,8 hPa 0,0 l/m 0,0 km/h (0 Bft) O-NO 57 0 min 0,000 mm 0,0 UV-I 24 W/m 11,2 C 11,8 C 0,0 km/h (0 Bft)
16.09.2014 07:40 11,8 C 96 % 1015,8 hPa 0,0 l/m 0,0 km/h (0 Bft) O-NO 57 0 min 0,000 mm 0,0 UV-I 28 W/m 11,2 C 11,8 C 0,0 km/h (0 Bft)
16.09.2014 07:45 11,8 C 96 % 1015,8 hPa 0,0 l/m 0,0 km/h (0 Bft) O-NO 57 0 min 0,000 mm 0,0 UV-I 40 W/m 11,2 C 11,8 C 0,0 km/h (0 Bft)
16.09.2014 07:50 11,9 C 96 % 1015,8 hPa 0,0 l/m 0,0 km/h (0 Bft) O-NO 57 0 min 0,000 mm 0,0 UV-I 59 W/m 11,3 C 11,9 C 0,0 km/h (0 Bft)
16.09.2014 07:55 12,0 C 96 % 1015,8 hPa 0,0 l/m 0,0 km/h (0 Bft) O-NO 57 5 min 0,000 mm 0,0 UV-I 74 W/m 11,4 C 12,0 C 0,0 km/h (0 Bft)
16.09.2014 08:00 12,2 C 96 % 1015,8 hPa 0,0 l/m 0,0 km/h (0 Bft) O-NO 57 0 min 0,025 mm 0,0 UV-I 63 W/m 11,6 C 12,2 C 0,0 km/h (0 Bft)
16.09.2014 08:05 12,4 C 96 % 1015,8 hPa 0,0 l/m 0,0 km/h (0 Bft) O-NO 57 0 min 0,000 mm 0,0 UV-I 64 W/m 11,8 C 12,4 C 0,0 km/h (0 Bft)
16.09.2014 08:10 12,7 C 96 % 1015,8 hPa 0,0 l/m 0,0 km/h (0 Bft) O-NO 57 0 min 0,000 mm 0,0 UV-I 81 W/m 12,1 C 12,7 C 0,0 km/h (0 Bft)
16.09.2014 08:15 12,8 C 97 % 1015,8 hPa 0,0 l/m 0,0 km/h (0 Bft) O-NO 57 0 min 0,000 mm 0,0 UV-I 88 W/m 12,3 C 12,8 C 0,0 km/h (0 Bft)
16.09.2014 08:20 13,0 C 96 % 1015,8 hPa 0,0 l/m 0,0 km/h (0 Bft) O-NO 57 0 min 0,000 mm 0,0 UV-I 96 W/m 12,4 C 13,0 C 0,0 km/h (0 Bft)
16.09.2014 08:25 13,1 C 97 % 1015,7 hPa 0,0 l/m 0,0 km/h (0 Bft) O-NO 57 0 min 0,000 mm 0,0 UV-I 99 W/m 12,6 C 13,1 C 0,0 km/h (0 Bft)
16.09.2014 08:30 13,4 C 97 % 1015,7 hPa 0,0 l/m 0,0 km/h (0 Bft) O-NO 57 0 min 0,000 mm 0,0 UV-I 97 W/m 12,9 C 13,4 C 0,0 km/h (0 Bft)
16.09.2014 08:35 13,7 C 96 % 1015,7 hPa 0,0 l/m 0,0 km/h (0 Bft) O-NO 57 0 min 0,000 mm 0,0 UV-I 127 W/m 13,1 C 13,7 C 1,6 km/h (1 Bft)
16.09.2014 08:40 13,9 C 97 % 1015,7 hPa 0,0 l/m 0,0 km/h (0 Bft) O-NO 57 0 min 0,000 mm 0,0 UV-I 127 W/m 13,4 C 13,9 C 0,0 km/h (0 Bft)
16.09.2014 08:45 14,1 C 96 % 1015,7 hPa 0,0 l/m 0,0 km/h (0 Bft) O-NO 57 0 min 0,000 mm 0,1 UV-I 130 W/m 13,5 C 14,1 C 1,6 km/h (1 Bft)
16.09.2014 08:50 14,2 C 97 % 1015,8 hPa 0,0 l/m 0,0 km/h (0 Bft) O-NO 57 0 min 0,000 mm 0,5 UV-I 130 W/m 13,7 C 14,2 C 1,6 km/h (1 Bft)
16.09.2014 08:55 14,2 C 96 % 1015,8 hPa 0,0 l/m 0,0 km/h (0 Bft) O-NO 57 0 min 0,000 mm 0,5 UV-I 143 W/m 13,6 C 14,2 C 1,6 km/h (1 Bft)
16.09.2014 09:00 14,4 C 96 % 1015,8 hPa 0,0 l/m 0,0 km/h (0 Bft) O-NO 57 0 min 0,051 mm 0,6 UV-I 163 W/m 13,8 C 14,4 C 1,6 km/h (1 Bft)
16.09.2014 09:05 14,7 C 96 % 1015,9 hPa 0,0 l/m 0,0 km/h (0 Bft) O-NO 57 5 min 0,000 mm 0,6 UV-I 183 W/m 14,1 C 14,7 C 1,6 km/h (1 Bft)
16.09.2014 09:10 15,0 C 96 % 1015,9 hPa 0,0 l/m 0,1 km/h (0 Bft) O 89 5 min 0,000 mm 0,7 UV-I 210 W/m 14,4 C 15,0 C 3,2 km/h (1 Bft)
16.09.2014 09:15 15,3 C 95 % 1015,9 hPa 0,0 l/m 0,3 km/h (0 Bft) O 90 5 min 0,000 mm 0,8 UV-I 210 W/m 14,5 C 15,3 C 3,2 km/h (1 Bft)
16.09.2014 09:20 15,8 C 94 % 1015,8 hPa 0,0 l/m 2,0 km/h (1 Bft) O 95 0 min 0,000 mm 0,8 UV-I 189 W/m 14,8 C 15,8 C 8,0 km/h (2 Bft)
16.09.2014 09:25 15,9 C 94 % 1015,9 hPa 0,0 l/m 2,4 km/h (1 Bft) O-NO 77 0 min 0,000 mm 0,8 UV-I 102 W/m 14,9 C 15,9 C 4,8 km/h (1 Bft)
16.09.2014 09:30 16,2 C 93 % 1015,9 hPa 0,0 l/m 1,8 km/h (1 Bft) O-NO 74 0 min 0,000 mm 0,9 UV-I 125 W/m 15,1 C 16,2 C 6,4 km/h (2 Bft)
16.09.2014 09:35 16,2 C 92 % 1016,0 hPa 0,0 l/m 3,8 km/h (1 Bft) O-NO 59 0 min 0,000 mm 0,9 UV-I 122 W/m 14,9 C 16,2 C 8,0 km/h (2 Bft)
16.09.2014 09:40 16,4 C 92 % 1016,1 hPa 0,0 l/m 3,1 km/h (1 Bft) O-NO 60 0 min 0,000 mm 0,8 UV-I 124 W/m 15,1 C 16,4 C 8,0 km/h (2 Bft)
16.09.2014 09:45 16,7 C 91 % 1016,0 hPa 0,0 l/m 4,2 km/h (1 Bft) O-NO 61 0 min 0,000 mm 1,0 UV-I 200 W/m 15,2 C 16,7 C 11,3 km/h (2 Bft)
16.09.2014 09:50 17,3 C 90 % 1016,1 hPa 0,0 l/m 4,2 km/h (1 Bft) O-NO 57 5 min 0,000 mm 1,2 UV-I 255 W/m 15,6 C 17,3 C 11,3 km/h (2 Bft)
16.09.2014 09:55 17,9 C 87 % 1016,0 hPa 0,0 l/m 5,2 km/h (1 Bft) NO 40 5 min 0,000 mm 1,3 UV-I 343 W/m 15,7 C 17,9 C 11,3 km/h (2 Bft)
16.09.2014 10:00 18,2 C 87 % 1016,1 hPa 0,0 l/m 6,3 km/h (2 Bft) NO 52 5 min 0,102 mm 1,4 UV-I 348 W/m 16,0 C 18,2 C 12,9 km/h (3 Bft)
16.09.2014 10:05 18,2 C 83 % 1016,1 hPa 0,0 l/m 6,6 km/h (2 Bft) O-SO 106 5 min 0,000 mm 1,4 UV-I 358 W/m 15,3 C 18,1 C 11,3 km/h (2 Bft)
16.09.2014 10:10 17,9 C 85 % 1016,1 hPa 0,0 l/m 4,0 km/h (1 Bft) O-NO 74 5 min 0,000 mm 1,5 UV-I 297 W/m 15,3 C 17,9 C 8,0 km/h (2 Bft)
16.09.2014 10:15 18,1 C 84 % 1016,1 hPa 0,0 l/m 6,6 km/h (2 Bft) O-NO 58 5 min 0,000 mm 1,6 UV-I 348 W/m 15,4 C 18,0 C 11,3 km/h (2 Bft)
16.09.2014 10:20 18,2 C 83 % 1016,2 hPa 0,0 l/m 6,6 km/h (2 Bft) O 98 0 min 0,000 mm 1,5 UV-I 226 W/m 15,3 C 18,1 C 12,9 km/h (3 Bft)
16.09.2014 10:25 18,2 C 84 % 1016,2 hPa 0,0 l/m 6,1 km/h (2 Bft) NO 44 0 min 0,000 mm 1,4 UV-I 225 W/m 15,4 C 18,2 C 12,9 km/h (3 Bft)
16.09.2014 10:30 18,4 C 83 % 1016,2 hPa 0,0 l/m 6,4 km/h (2 Bft) NO 38 0 min 0,000 mm 1,3 UV-I 198 W/m 15,5 C 18,4 C 11,3 km/h (2 Bft)
16.09.2014 10:35 18,5 C 84 % 1016,2 hPa 0,0 l/m 4,1 km/h (1 Bft) O-NO 64 0 min 0,000 mm 1,4 UV-I 242 W/m 15,7 C 18,5 C 12,9 km/h (3 Bft)
16.09.2014 10:40 18,9 C 82 % 1016,2 hPa 0,0 l/m 5,2 km/h (1 Bft) NO 56 5 min 0,000 mm 1,7 UV-I 325 W/m 15,8 C 18,9 C 11,3 km/h (2 Bft)
16.09.2014 10:45 18,9 C 82 % 1016,3 hPa 0,0 l/m 4,2 km/h (1 Bft) O-NO 59 0 min 0,000 mm 1,5 UV-I 227 W/m 15,8 C 18,9 C 11,3 km/h (2 Bft)
16.09.2014 10:50 18,9 C 82 % 1016,3 hPa 0,0 l/m 4,2 km/h (1 Bft) NO 49 0 min 0,000 mm 1,5 UV-I 227 W/m 15,8 C 18,9 C 9,7 km/h (2 Bft)
16.09.2014 10:55 18,9 C 81 % 1016,3 hPa 0,0 l/m 6,5 km/h (2 Bft) NO 49 0 min 0,000 mm 1,7 UV-I 285 W/m 15,6 C 18,9 C 14,5 km/h (3 Bft)
16.09.2014 11:00 19,1 C 82 % 1016,3 hPa 0,0 l/m 3,9 km/h (1 Bft) O-SO 121 5 min 0,178 mm 2,1 UV-I 394 W/m 16,0 C 19,1 C 12,9 km/h (3 Bft)
16.09.2014 11:05 19,2 C 81 % 1016,3 hPa 0,0 l/m 4,2 km/h (1 Bft) NO 44 5 min 0,000 mm 2,1 UV-I 314 W/m 15,9 C 19,2 C 9,7 km/h (2 Bft)
16.09.2014 11:10 19,1 C 79 % 1016,2 hPa 0,0 l/m 5,4 km/h (1 Bft) O-SO 113 0 min 0,000 mm 2,1 UV-I 288 W/m 15,4 C 19,1 C 11,3 km/h (2 Bft)
16.09.2014 11:15 19,3 C 80 % 1016,2 hPa 0,0 l/m 6,4 km/h (2 Bft) SO 129 5 min 0,000 mm 2,4 UV-I 341 W/m 15,8 C 19,3 C 16,1 km/h (3 Bft)
16.09.2014 11:20 19,2 C 79 % 1016,2 hPa 0,0 l/m 6,3 km/h (2 Bft) NO 51 5 min 0,000 mm 2,4 UV-I 335 W/m 15,5 C 19,2 C 14,5 km/h (3 Bft)
16.09.2014 11:25 19,8 C 78 % 1016,2 hPa 0,0 l/m 7,3 km/h (2 Bft) O 90 5 min 0,000 mm 2,6 UV-I 334 W/m 15,8 C 19,4 C 12,9 km/h (3 Bft)
16.09.2014 11:30 19,3 C 79 % 1016,2 hPa 0,0 l/m 4,8 km/h (1 Bft) O-NO 59 5 min 0,000 mm 2,5 UV-I 436 W/m 15,6 C 19,3 C 9,7 km/h (2 Bft)
16.09.2014 11:35 20,1 C 77 % 1016,1 hPa 0,0 l/m 4,3 km/h (1 Bft) O-NO 60 5 min 0,000 mm 2,5 UV-I 348 W/m 15,9 C 20,1 C 11,3 km/h (2 Bft)
16.09.2014 11:40 20,6 C 77 % 1016,1 hPa 0,0 l/m 6,0 km/h (2 Bft) NO 40 5 min 0,000 mm 2,8 UV-I 453 W/m 16,4 C 20,6 C 12,9 km/h (3 Bft)
16.09.2014 11:45 20,2 C 76 % 1016,0 hPa 0,0 l/m 4,9 km/h (1 Bft) O-SO 108 0 min 0,000 mm 2,3 UV-I 290 W/m 15,8 C 20,2 C 12,9 km/h (3 Bft)
16.09.2014 11:50 20,2 C 77 % 1016,0 hPa 0,0 l/m 5,4 km/h (1 Bft) NO 53 0 min 0,000 mm 2,2 UV-I 217 W/m 16,0 C 20,2 C 12,9 km/h (3 Bft)
16.09.2014 11:55 20,2 C 77 % 1016,0 hPa 0,0 l/m 4,7 km/h (1 Bft) NO 42 0 min 0,000 mm 1,8 UV-I 189 W/m 16,0 C 20,2 C 9,7 km/h (2 Bft)
16.09.2014 12:00 20,2 C 77 % 1015,9 hPa 0,0 l/m 3,9 km/h (1 Bft) O 85 0 min 0,000 mm 2,2 UV-I 246 W/m 16,0 C 20,2 C 11,3 km/h (2 Bft)
16.09.2014 12:05 19,9 C 77 % 1015,9 hPa 0,0 l/m 4,7 km/h (1 Bft) O 86 0 min 0,203 mm 2,1 UV-I 224 W/m 15,7 C 19,9 C 11,3 km/h (2 Bft)
16.09.2014 12:10 19,6 C 78 % 1015,9 hPa 0,0 l/m 4,4 km/h (1 Bft) O-NO 59 0 min 0,000 mm 1,9 UV-I 195 W/m 15,7 C 19,6 C 8,0 km/h (2 Bft)
16.09.2014 12:15 19,8 C 78 % 1015,9 hPa 0,0 l/m 1,2 km/h (1 Bft) O-SO 105 0 min 0,000 mm 2,0 UV-I 230 W/m 15,8 C 19,8 C 6,4 km/h (2 Bft)
16.09.2014 12:20 19,7 C 79 % 1015,8 hPa 0,0 l/m 3,1 km/h (1 Bft) O-NO 74 0 min 0,000 mm 2,0 UV-I 224 W/m 16,0 C 19,7 C 11,3 km/h (2 Bft)
16.09.2014 12:25 20,9 C 75 % 1015,8 hPa 0,0 l/m 3,1 km/h (1 Bft) O-NO 67 5 min 0,000 mm 3,2 UV-I 505 W/m 16,3 C 20,9 C 8,0 km/h (2 Bft)
16.09.2014 12:30 20,9 C 74 % 1015,8 hPa 0,0 l/m 2,6 km/h (1 Bft) O-SO 111 5 min 0,000 mm 3,1 UV-I 527 W/m 16,1 C 20,9 C 8,0 km/h (2 Bft)
16.09.2014 12:35 20,9 C 74 % 1015,7 hPa 0,0 l/m 4,1 km/h (1 Bft) O 99 0 min 0,000 mm 2,7 UV-I 286 W/m 16,1 C 20,9 C 11,3 km/h (2 Bft)
16.09.2014 12:40 20,7 C 76 % 1015,7 hPa 0,0 l/m 4,6 km/h (1 Bft) O-NO 71 0 min 0,000 mm 2,1 UV-I 222 W/m 16,3 C 20,7 C 14,5 km/h (3 Bft)
16.09.2014 12:45 20,8 C 76 % 1015,7 hPa 0,0 l/m 5,8 km/h (2 Bft) O-NO 61 0 min 0,000 mm 1,8 UV-I 202 W/m 16,4 C 20,8 C 11,3 km/h (2 Bft)
16.09.2014 12:50 21,2 C 75 % 1015,6 hPa 0,0 l/m 2,5 km/h (1 Bft) O 90 5 min 0,000 mm 2,9 UV-I 452 W/m 16,6 C 21,2 C 8,0 km/h (2 Bft)
16.09.2014 12:55 20,8 C 74 % 1015,6 hPa 0,0 l/m 2,7 km/h (1 Bft) O 88 0 min 0,000 mm 2,4 UV-I 194 W/m 16,0 C 20,8 C 12,9 km/h (3 Bft)
16.09.2014 13:00 20,5 C 75 % 1015,6 hPa 0,0 l/m 2,4 km/h (1 Bft) O 87 0 min 0,000 mm 2,2 UV-I 167 W/m 15,9 C 20,5 C 8,0 km/h (2 Bft)
16.09.2014 13:05 20,3 C 76 % 1015,5 hPa 0,0 l/m 4,9 km/h (1 Bft) O-SO 111 0 min 0,178 mm 2,9 UV-I 246 W/m 15,9 C 20,3 C 12,9 km/h (3 Bft)
16.09.2014 13:10 20,9 C 75 % 1015,4 hPa 0,0 l/m 4,6 km/h (1 Bft) N-NO 20 5 min 0,000 mm 4,1 UV-I 720 W/m 16,3 C 20,9 C 14,5 km/h (3 Bft)
16.09.2014 13:15 21,4 C 71 % 1015,4 hPa 0,0 l/m 3,6 km/h (1 Bft) SO 130 5 min 0,000 mm 3,6 UV-I 708 W/m 15,9 C 21,4 C 12,9 km/h (3 Bft)
16.09.2014 13:20 21,3 C 72 % 1015,4 hPa 0,0 l/m 7,8 km/h (2 Bft) O 82 0 min 0,000 mm 2,6 UV-I 352 W/m 16,0 C 20,8 C 16,1 km/h (3 Bft)
16.09.2014 13:25 21,7 C 71 % 1015,3 hPa 0,0 l/m 8,4 km/h (2 Bft) O-NO 63 5 min 0,000 mm 2,6 UV-I 367 W/m 16,2 C 21,0 C 16,1 km/h (3 Bft)
16.09.2014 13:30 21,8 C 71 % 1015,3 hPa 0,0 l/m 6,8 km/h (2 Bft) NO 56 0 min 0,000 mm 2,3 UV-I 237 W/m 16,3 C 21,7 C 12,9 km/h (3 Bft)
16.09.2014 13:35 21,6 C 72 % 1015,3 hPa 0,0 l/m 5,4 km/h (1 Bft) NO 49 0 min 0,000 mm 1,9 UV-I 148 W/m 16,3 C 21,6 C 11,3 km/h (2 Bft)
16.09.2014 13:40 21,4 C 72 % 1015,3 hPa 0,0 l/m 5,7 km/h (1 Bft) O 92 0 min 0,000 mm 2,2 UV-I 191 W/m 16,1 C 21,4 C 14,5 km/h (3 Bft)
16.09.2014 13:45 21,4 C 72 % 1015,3 hPa 0,0 l/m 5,9 km/h (2 Bft) O 87 5 min 0,000 mm 3,5 UV-I 726 W/m 16,1 C 21,4 C 9,7 km/h (2 Bft)
16.09.2014 13:50 21,7 C 70 % 1015,2 hPa 0,0 l/m 7,5 km/h (2 Bft) O 91 5 min 0,000 mm 2,4 UV-I 435 W/m 16,0 C 21,3 C 12,9 km/h (3 Bft)
16.09.2014 13:55 21,2 C 72 % 1015,3 hPa 0,0 l/m 7,1 km/h (2 Bft) NO 44 0 min 0,000 mm 2,3 UV-I 229 W/m 15,9 C 20,9 C 16,1 km/h (3 Bft)
16.09.2014 14:00 21,2 C 72 % 1015,2 hPa 0,0 l/m 4,6 km/h (1 Bft) NO 40 0 min 0,000 mm 2,6 UV-I 220 W/m 15,9 C 21,2 C 11,3 km/h (2 Bft)
16.09.2014 14:05 21,4 C 70 % 1015,2 hPa 0,0 l/m 2,5 km/h (1 Bft) SO 142 5 min 0,254 mm 3,7 UV-I 397 W/m 15,7 C 21,4 C 8,0 km/h (2 Bft)
16.09.2014 14:10 21,5 C 69 % 1015,1 hPa 0,0 l/m 4,9 km/h (1 Bft) S 181 5 min 0,000 mm 3,8 UV-I 707 W/m 15,6 C 21,5 C 9,7 km/h (2 Bft)
16.09.2014 14:15 22,0 C 67 % 1015,0 hPa 0,0 l/m 7,1 km/h (2 Bft) S-SO 150 5 min 0,000 mm 3,8 UV-I 751 W/m 15,6 C 21,8 C 14,5 km/h (3 Bft)
16.09.2014 14:20 22,1 C 67 % 1015,0 hPa 0,0 l/m 9,7 km/h (2 Bft) O-SO 106 5 min 0,000 mm 3,2 UV-I 586 W/m 15,7 C 21,0 C 20,9 km/h (4 Bft)
16.09.2014 14:25 22,8 C 68 % 1014,9 hPa 0,0 l/m 9,0 km/h (2 Bft) NO 54 5 min 0,000 mm 3,1 UV-I 543 W/m 16,6 C 22,0 C 17,7 km/h (3 Bft)
16.09.2014 14:30 22,9 C 67 % 1014,9 hPa 0,0 l/m 11,3 km/h (2 Bft) O-NO 58 0 min 0,000 mm 2,3 UV-I 289 W/m 16,4 C 21,5 C 19,3 km/h (3 Bft)
16.09.2014 14:35 22,7 C 67 % 1014,9 hPa 0,0 l/m 9,4 km/h (2 Bft) NO 53 0 min 0,000 mm 2,2 UV-I 250 W/m 16,2 C 21,8 C 19,3 km/h (3 Bft)
16.09.2014 14:40 22,4 C 68 % 1014,9 hPa 0,0 l/m 8,0 km/h (2 Bft) NO 48 0 min 0,000 mm 2,4 UV-I 245 W/m 16,2 C 21,9 C 16,1 km/h (3 Bft)
16.09.2014 14:45 22,1 C 66 % 1014,9 hPa 0,0 l/m 6,7 km/h (2 Bft) O-NO 59 0 min 0,000 mm 2,0 UV-I 172 W/m 15,4 C 22,0 C 17,7 km/h (3 Bft)
16.09.2014 14:50 21,9 C 68 % 1015,0 hPa 0,0 l/m 9,7 km/h (2 Bft) O-NO 69 5 min 0,000 mm 2,7 UV-I 399 W/m 15,7 C 20,8 C 14,5 km/h (3 Bft)
16.09.2014 14:55 22,4 C 65 % 1014,9 hPa 0,0 l/m 8,3 km/h (2 Bft) O-SO 109 5 min 0,000 mm 3,1 UV-I 676 W/m 15,5 C 21,8 C 16,1 km/h (3 Bft)
16.09.2014 15:00 22,2 C 66 % 1014,9 hPa 0,0 l/m 6,1 km/h (2 Bft) O 85 0 min 0,000 mm 2,2 UV-I 296 W/m 15,5 C 22,2 C 16,1 km/h (3 Bft)
16.09.2014 15:05 22,2 C 65 % 1014,8 hPa 0,0 l/m 4,9 km/h (1 Bft) O-SO 117 5 min 0,304 mm 2,7 UV-I 413 W/m 15,3 C 22,2 C 11,3 km/h (2 Bft)
16.09.2014 15:10 22,6 C 63 % 1014,7 hPa 0,0 l/m 4,6 km/h (1 Bft) O 88 5 min 0,000 mm 3,0 UV-I 672 W/m 15,2 C 22,6 C 9,7 km/h (2 Bft)
16.09.2014 15:15 22,5 C 62 % 1014,6 hPa 0,0 l/m 7,1 km/h (2 Bft) S-SO 149 0 min 0,000 mm 2,6 UV-I 294 W/m 14,8 C 22,3 C 16,1 km/h (3 Bft)
16.09.2014 15:20 22,4 C 62 % 1014,5 hPa 0,0 l/m 8,9 km/h (2 Bft) S 170 5 min 0,000 mm 2,9 UV-I 626 W/m 14,8 C 21,6 C 16,1 km/h (3 Bft)
16.09.2014 15:25 23,0 C 59 % 1014,5 hPa 0,0 l/m 6,5 km/h (2 Bft) O-SO 111 5 min 0,000 mm 2,9 UV-I 646 W/m 14,5 C 23,0 C 16,1 km/h (3 Bft)
16.09.2014 15:30 23,3 C 57 % 1014,6 hPa 0,0 l/m 8,4 km/h (2 Bft) O-SO 115 5 min 0,000 mm 2,8 UV-I 651 W/m 14,3 C 22,7 C 20,9 km/h (4 Bft)
16.09.2014 15:35 23,3 C 59 % 1014,5 hPa 0,0 l/m 9,1 km/h (2 Bft) S 191 5 min 0,000 mm 2,8 UV-I 638 W/m 14,8 C 22,5 C 16,1 km/h (3 Bft)
16.09.2014 15:40 23,6 C 57 % 1014,5 hPa 0,0 l/m 5,4 km/h (1 Bft) NO 34 5 min 0,000 mm 2,6 UV-I 623 W/m 14,6 C 23,6 C 11,3 km/h (2 Bft)
16.09.2014 15:45 24,1 C 55 % 1014,4 hPa 0,0 l/m 3,6 km/h (1 Bft) SO 144 5 min 0,000 mm 2,5 UV-I 632 W/m 14,5 C 24,1 C 9,7 km/h (2 Bft)
16.09.2014 15:50 24,1 C 55 % 1014,4 hPa 0,0 l/m 5,9 km/h (2 Bft) SO 126 5 min 0,000 mm 2,4 UV-I 617 W/m 14,5 C 24,1 C 14,5 km/h (3 Bft)
16.09.2014 15:55 23,4 C 56 % 1014,4 hPa 0,0 l/m 9,1 km/h (2 Bft) O-SO 112 5 min 0,000 mm 2,3 UV-I 625 W/m 14,1 C 22,6 C 16,1 km/h (3 Bft)
16.09.2014 16:00 24,0 C 56 % 1014,4 hPa 0,0 l/m 7,7 km/h (2 Bft) O-NO 71 5 min 0,000 mm 2,2 UV-I 633 W/m 14,7 C 23,6 C 14,5 km/h (3 Bft)
16.09.2014 16:05 23,9 C 55 % 1014,3 hPa 0,0 l/m 10,2 km/h (2 Bft) NO 47 5 min 0,407 mm 1,8 UV-I 605 W/m 14,3 C 22,9 C 22,5 km/h (4 Bft)
16.09.2014 16:10 23,9 C 56 % 1014,4 hPa 0,0 l/m 9,6 km/h (2 Bft) O-NO 62 5 min 0,000 mm 1,7 UV-I 577 W/m 14,6 C 23,0 C 16,1 km/h (3 Bft)
16.09.2014 16:15 23,8 C 55 % 1014,3 hPa 0,0 l/m 8,9 km/h (2 Bft) O-NO 59 5 min 0,000 mm 1,7 UV-I 555 W/m 14,2 C 23,1 C 14,5 km/h (3 Bft)
16.09.2014 16:20 23,9 C 55 % 1014,4 hPa 0,0 l/m 8,9 km/h (2 Bft) O-NO 60 5 min 0,000 mm 1,7 UV-I 535 W/m 14,3 C 23,2 C 16,1 km/h (3 Bft)
16.09.2014 16:25 23,5 C 55 % 1014,3 hPa 0,0 l/m 10,0 km/h (2 Bft) O 92 5 min 0,000 mm 1,6 UV-I 510 W/m 13,9 C 22,5 C 16,1 km/h (3 Bft)
16.09.2014 16:30 23,1 C 57 % 1014,3 hPa 0,0 l/m 9,3 km/h (2 Bft) O-NO 59 5 min 0,000 mm 1,6 UV-I 478 W/m 14,1 C 22,2 C 16,1 km/h (3 Bft)
16.09.2014 16:35 23,0 C 56 % 1014,3 hPa 0,0 l/m 7,7 km/h (2 Bft) O 101 5 min 0,000 mm 1,5 UV-I 450 W/m 13,7 C 22,6 C 12,9 km/h (3 Bft)
16.09.2014 16:40 23,1 C 57 % 1014,3 hPa 0,0 l/m 5,5 km/h (1 Bft) O-SO 107 5 min 0,000 mm 1,5 UV-I 454 W/m 14,1 C 23,1 C 12,9 km/h (3 Bft)
16.09.2014 16:45 22,9 C 57 % 1014,3 hPa 0,0 l/m 8,3 km/h (2 Bft) SO 129 5 min 0,000 mm 1,4 UV-I 441 W/m 13,9 C 22,3 C 14,5 km/h (3 Bft)
16.09.2014 16:50 23,2 C 58 % 1014,3 hPa 0,0 l/m 5,9 km/h (2 Bft) SO 130 5 min 0,000 mm 1,3 UV-I 435 W/m 14,5 C 23,2 C 12,9 km/h (3 Bft)
16.09.2014 16:55 23,1 C 55 % 1014,2 hPa 0,0 l/m 8,8 km/h (2 Bft) O 93 5 min 0,000 mm 1,3 UV-I 439 W/m 13,6 C 22,4 C 16,1 km/h (3 Bft)
16.09.2014 17:00 23,1 C 56 % 1014,2 hPa 0,0 l/m 7,6 km/h (2 Bft) O-NO 77 5 min 0,000 mm 1,2 UV-I 451 W/m 13,8 C 22,7 C 14,5 km/h (3 Bft)
16.09.2014 17:05 23,0 C 57 % 1014,1 hPa 0,0 l/m 8,6 km/h (2 Bft) O-SO 113 5 min 0,355 mm 1,1 UV-I 446 W/m 14,0 C 22,3 C 16,1 km/h (3 Bft)
16.09.2014 17:10 23,0 C 58 % 1014,2 hPa 0,0 l/m 10,0 km/h (2 Bft) O 85 5 min 0,000 mm 1,0 UV-I 448 W/m 14,3 C 22,0 C 17,7 km/h (3 Bft)
16.09.2014 17:15 23,3 C 56 % 1014,2 hPa 0,0 l/m 5,3 km/h (1 Bft) O 93 5 min 0,000 mm 0,9 UV-I 400 W/m 14,0 C 23,3 C 11,3 km/h (2 Bft)
16.09.2014 17:20 23,3 C 55 % 1014,2 hPa 0,0 l/m 3,8 km/h (1 Bft) O 101 5 min 0,000 mm 0,9 UV-I 354 W/m 13,7 C 23,3 C 9,7 km/h (2 Bft)
16.09.2014 17:25 23,2 C 57 % 1014,2 hPa 0,0 l/m 5,8 km/h (2 Bft) O-NO 70 5 min 0,000 mm 0,9 UV-I 332 W/m 14,2 C 23,2 C 14,5 km/h (3 Bft)
16.09.2014 17:30 23,0 C 58 % 1014,2 hPa 0,0 l/m 5,1 km/h (1 Bft) O 100 5 min 0,000 mm 0,8 UV-I 316 W/m 14,3 C 23,0 C 12,9 km/h (3 Bft)
16.09.2014 17:35 22,7 C 57 % 1014,1 hPa 0,0 l/m 7,9 km/h (2 Bft) O-SO 117 5 min 0,000 mm 0,7 UV-I 318 W/m 13,7 C 22,2 C 14,5 km/h (3 Bft)
16.09.2014 17:40 23,1 C 59 % 1014,1 hPa 0,0 l/m 3,6 km/h (1 Bft) O 88 5 min 0,000 mm 0,7 UV-I 333 W/m 14,6 C 23,1 C 8,0 km/h (2 Bft)
16.09.2014 17:45 22,9 C 58 % 1014,1 hPa 0,0 l/m 6,5 km/h (2 Bft) O-SO 123 5 min 0,000 mm 0,6 UV-I 315 W/m 14,2 C 22,9 C 14,5 km/h (3 Bft)
16.09.2014 17:50 22,8 C 58 % 1014,1 hPa 0,0 l/m 8,1 km/h (2 Bft) O-SO 106 5 min 0,000 mm 0,6 UV-I 278 W/m 14,1 C 22,3 C 14,5 km/h (3 Bft)
16.09.2014 17:55 22,6 C 58 % 1014,1 hPa 0,0 l/m 10,4 km/h (2 Bft) O-SO 108 5 min 0,000 mm 0,5 UV-I 250 W/m 13,9 C 21,4 C 17,7 km/h (3 Bft)
16.09.2014 18:00 22,3 C 59 % 1014,1 hPa 0,0 l/m 9,6 km/h (2 Bft) S-SO 158 5 min 0,000 mm 0,5 UV-I 222 W/m 13,9 C 21,3 C 16,1 km/h (3 Bft)
16.09.2014 18:05 22,3 C 59 % 1014,1 hPa 0,0 l/m 8,6 km/h (2 Bft) O 90 5 min 0,254 mm 0,3 UV-I 203 W/m 13,9 C 21,6 C 14,5 km/h (3 Bft)
16.09.2014 18:10 22,3 C 59 % 1014,1 hPa 0,0 l/m 5,7 km/h (1 Bft) SO 145 5 min 0,000 mm 0,0 UV-I 188 W/m 13,9 C 22,3 C 14,5 km/h (3 Bft)
16.09.2014 18:15 22,2 C 59 % 1014,1 hPa 0,0 l/m 6,4 km/h (2 Bft) SO 140 5 min 0,000 mm 0,0 UV-I 178 W/m 13,8 C 22,2 C 11,3 km/h (2 Bft)
16.09.2014 18:20 22,2 C 59 % 1014,2 hPa 0,0 l/m 6,4 km/h (2 Bft) SO 130 5 min 0,000 mm 0,0 UV-I 165 W/m 13,8 C 22,2 C 11,3 km/h (2 Bft)
16.09.2014 18:25 22,1 C 60 % 1014,1 hPa 0,0 l/m 5,9 km/h (2 Bft) S-SO 151 5 min 0,000 mm 0,0 UV-I 152 W/m 14,0 C 22,1 C 11,3 km/h (2 Bft)
16.09.2014 18:30 22,0 C 60 % 1014,2 hPa 0,0 l/m 5,4 km/h (1 Bft) O-SO 108 5 min 0,000 mm 0,0 UV-I 146 W/m 13,9 C 22,0 C 9,7 km/h (2 Bft)
16.09.2014 18:35 22,0 C 60 % 1014,2 hPa 0,0 l/m 4,3 km/h (1 Bft) O 85 5 min 0,000 mm 0,0 UV-I 147 W/m 13,9 C 22,0 C 8,0 km/h (2 Bft)
16.09.2014 18:40 22,1 C 60 % 1014,1 hPa 0,0 l/m 2,3 km/h (1 Bft) O-SO 121 5 min 0,000 mm 0,0 UV-I 146 W/m 14,0 C 22,1 C 6,4 km/h (2 Bft)
16.09.2014 18:45 22,1 C 60 % 1014,2 hPa 0,0 l/m 0,8 km/h (0 Bft) S-SO 167 5 min 0,000 mm 0,0 UV-I 136 W/m 14,0 C 22,1 C 6,4 km/h (2 Bft)
16.09.2014 18:50 22,2 C 60 % 1014,2 hPa 0,0 l/m 1,1 km/h (1 Bft) O-SO 122 5 min 0,000 mm 0,0 UV-I 98 W/m 14,1 C 22,2 C 4,8 km/h (1 Bft)
16.09.2014 18:55 22,2 C 61 % 1014,2 hPa 0,0 l/m 1,8 km/h (1 Bft) SO 128 5 min 0,000 mm 0,0 UV-I 64 W/m 14,3 C 22,2 C 6,4 km/h (2 Bft)
16.09.2014 19:00 22,0 C 61 % 1014,2 hPa 0,0 l/m 0,9 km/h (0 Bft) SO 128 5 min 0,000 mm 0,0 UV-I 51 W/m 14,1 C 22,0 C 3,2 km/h (1 Bft)
16.09.2014 19:05 21,9 C 62 % 1014,2 hPa 0,0 l/m 1,2 km/h (1 Bft) SO 133 5 min 0,102 mm 0,0 UV-I 43 W/m 14,3 C 21,9 C 6,4 km/h (2 Bft)
16.09.2014 19:10 21,8 C 63 % 1014,2 hPa 0,0 l/m 0,1 km/h (0 Bft) O-SO 120 0 min 0,000 mm 0,0 UV-I 33 W/m 14,4 C 21,8 C 1,6 km/h (1 Bft)
16.09.2014 19:15 21,7 C 63 % 1014,2 hPa 0,0 l/m 1,0 km/h (0 Bft) O-NO 65 0 min 0,000 mm 0,0 UV-I 22 W/m 14,3 C 21,7 C 4,8 km/h (1 Bft)
16.09.2014 19:20 21,5 C 64 % 1014,2 hPa 0,0 l/m 0,1 km/h (0 Bft) O-NO 65 0 min 0,000 mm 0,0 UV-I 18 W/m 14,4 C 21,5 C 1,6 km/h (1 Bft)
16.09.2014 19:25 21,3 C 66 % 1014,2 hPa 0,0 l/m 0,0 km/h (0 Bft) O-NO 65 5 min 0,000 mm 0,0 UV-I 14 W/m 14,7 C 21,3 C 0,0 km/h (0 Bft)
16.09.2014 19:30 21,1 C 65 % 1014,2 hPa 0,0 l/m 0,1 km/h (0 Bft) O-NO 65 0 min 0,000 mm 0,0 UV-I 11 W/m 14,3 C 21,1 C 1,6 km/h (1 Bft)
16.09.2014 19:35 20,7 C 66 % 1014,2 hPa 0,0 l/m 0,0 km/h (0 Bft) O-NO 65 0 min 0,000 mm 0,0 UV-I 8 W/m 14,1 C 20,7 C 0,0 km/h (0 Bft)
16.09.2014 19:40 20,4 C 67 % 1014,3 hPa 0,0 l/m 0,0 km/h (0 Bft) O-NO 65 0 min 0,000 mm 0,0 UV-I 4 W/m 14,1 C 20,4 C 0,0 km/h (0 Bft)
16.09.2014 19:45 20,1 C 68 % 1014,3 hPa 0,0 l/m 0,0 km/h (0 Bft) O-NO 65 0 min 0,000 mm 0,0 UV-I 0 W/m 14,0 C 20,1 C 0,0 km/h (0 Bft)
16.09.2014 19:50 19,8 C 69 % 1014,3 hPa 0,0 l/m 0,0 km/h (0 Bft) O-NO 65 0 min 0,000 mm 0,0 UV-I 0 W/m 13,9 C 19,8 C 0,0 km/h (0 Bft)
16.09.2014 19:55 19,6 C 70 % 1014,3 hPa 0,0 l/m 0,0 km/h (0 Bft) O-NO 65 0 min 0,000 mm 0,0 UV-I 0 W/m 14,0 C 19,6 C 0,0 km/h (0 Bft)
16.09.2014 20:00 19,3 C 70 % 1014,4 hPa 0,0 l/m 0,0 km/h (0 Bft) O-NO 65 0 min 0,000 mm 0,0 UV-I 0 W/m 13,7 C 19,3 C 1,6 km/h (1 Bft)
16.09.2014 20:05 19,2 C 71 % 1014,4 hPa 0,0 l/m 0,0 km/h (0 Bft) O-NO 65 0 min 0,025 mm 0,0 UV-I 0 W/m 13,8 C 19,2 C 0,0 km/h (0 Bft)
16.09.2014 20:10 18,9 C 72 % 1014,5 hPa 0,0 l/m 0,0 km/h (0 Bft) O-NO 65 0 min 0,000 mm 0,0 UV-I 0 W/m 13,7 C 18,9 C 0,0 km/h (0 Bft)
16.09.2014 20:15 18,7 C 74 % 1014,4 hPa 0,0 l/m 0,0 km/h (0 Bft) O-NO 65 0 min 0,000 mm 0,0 UV-I 0 W/m 14,0 C 18,7 C 0,0 km/h (0 Bft)
16.09.2014 20:20 18,3 C 75 % 1014,5 hPa 0,0 l/m 0,0 km/h (0 Bft) O-NO 65 0 min 0,000 mm 0,0 UV-I 0 W/m 13,8 C 18,3 C 1,6 km/h (1 Bft)
16.09.2014 20:25 18,1 C 76 % 1014,6 hPa 0,0 l/m 0,0 km/h (0 Bft) O-NO 65 0 min 0,000 mm 0,0 UV-I 0 W/m 13,8 C 18,1 C 0,0 km/h (0 Bft)
16.09.2014 20:30 17,9 C 76 % 1014,6 hPa 0,0 l/m 0,0 km/h (0 Bft) O-NO 65 0 min 0,000 mm 0,0 UV-I 0 W/m 13,6 C 17,9 C 0,0 km/h (0 Bft)
16.09.2014 20:35 17,8 C 77 % 1014,7 hPa 0,0 l/m 0,0 km/h (0 Bft) O-NO 65 0 min 0,000 mm 0,0 UV-I 0 W/m 13,7 C 17,8 C 0,0 km/h (0 Bft)
16.09.2014 20:40 17,7 C 77 % 1014,6 hPa 0,0 l/m 0,0 km/h (0 Bft) O-NO 65 0 min 0,000 mm 0,0 UV-I 0 W/m 13,6 C 17,7 C 0,0 km/h (0 Bft)
16.09.2014 20:45 17,6 C 77 % 1014,6 hPa 0,0 l/m 0,0 km/h (0 Bft) O-NO 65 0 min 0,000 mm 0,0 UV-I 0 W/m 13,5 C 17,6 C 0,0 km/h (0 Bft)
16.09.2014 20:50 17,5 C 77 % 1014,6 hPa 0,0 l/m 0,0 km/h (0 Bft) O-NO 65 0 min 0,000 mm 0,0 UV-I 0 W/m 13,4 C 17,5 C 0,0 km/h (0 Bft)
16.09.2014 20:55 17,3 C 78 % 1014,7 hPa 0,0 l/m 0,0 km/h (0 Bft) O-NO 65 0 min 0,000 mm 0,0 UV-I 0 W/m 13,4 C 17,3 C 0,0 km/h (0 Bft)
16.09.2014 21:00 17,1 C 78 % 1014,7 hPa 0,0 l/m 0,0 km/h (0 Bft) O-NO 65 0 min 0,000 mm 0,0 UV-I 0 W/m 13,2 C 17,1 C 0,0 km/h (0 Bft)
16.09.2014 21:05 16,9 C 78 % 1014,8 hPa 0,0 l/m 0,0 km/h (0 Bft) O-NO 65 0 min 0,026 mm 0,0 UV-I 0 W/m 13,0 C 16,9 C 0,0 km/h (0 Bft)
16.09.2014 21:10 16,7 C 79 % 1014,8 hPa 0,0 l/m 0,0 km/h (0 Bft) O-NO 65 0 min 0,000 mm 0,0 UV-I 0 W/m 13,0 C 16,7 C 0,0 km/h (0 Bft)
16.09.2014 21:15 16,6 C 80 % 1014,7 hPa 0,0 l/m 0,0 km/h (0 Bft) O-NO 65 0 min 0,000 mm 0,0 UV-I 0 W/m 13,1 C 16,6 C 0,0 km/h (0 Bft)
16.09.2014 21:20 16,3 C 81 % 1014,7 hPa 0,0 l/m 0,0 km/h (0 Bft) O-NO 65 0 min 0,000 mm 0,0 UV-I 0 W/m 13,0 C 16,3 C 0,0 km/h (0 Bft)
16.09.2014 21:25 16,2 C 80 % 1014,8 hPa 0,0 l/m 0,0 km/h (0 Bft) O-NO 65 0 min 0,000 mm 0,0 UV-I 0 W/m 12,7 C 16,2 C 0,0 km/h (0 Bft)
16.09.2014 21:30 16,0 C 81 % 1014,8 hPa 0,0 l/m 0,0 km/h (0 Bft) O-NO 65 0 min 0,000 mm 0,0 UV-I 0 W/m 12,7 C 16,0 C 0,0 km/h (0 Bft)
16.09.2014 21:35 15,8 C 82 % 1014,9 hPa 0,0 l/m 0,0 km/h (0 Bft) O-NO 65 0 min 0,000 mm 0,0 UV-I 0 W/m 12,7 C 15,8 C 0,0 km/h (0 Bft)
16.09.2014 21:40 15,6 C 83 % 1014,8 hPa 0,0 l/m 0,0 km/h (0 Bft) O-NO 65 0 min 0,000 mm 0,0 UV-I 0 W/m 12,7 C 15,6 C 0,0 km/h (0 Bft)
16.09.2014 21:45 15,4 C 83 % 1014,9 hPa 0,0 l/m 0,0 km/h (0 Bft) O-NO 65 0 min 0,000 mm 0,0 UV-I 0 W/m 12,5 C 15,4 C 0,0 km/h (0 Bft)
16.09.2014 21:50 15,2 C 84 % 1014,8 hPa 0,0 l/m 0,0 km/h (0 Bft) O-NO 65 0 min 0,000 mm 0,0 UV-I 0 W/m 12,5 C 15,2 C 0,0 km/h (0 Bft)
16.09.2014 21:55 15,1 C 84 % 1014,8 hPa 0,0 l/m 0,0 km/h (0 Bft) O-NO 65 0 min 0,000 mm 0,0 UV-I 0 W/m 12,4 C 15,1 C 0,0 km/h (0 Bft)
16.09.2014 22:00 14,9 C 85 % 1014,7 hPa 0,0 l/m 0,0 km/h (0 Bft) O-NO 65 0 min 0,000 mm 0,0 UV-I 0 W/m 12,4 C 14,9 C 0,0 km/h (0 Bft)
16.09.2014 22:05 14,8 C 85 % 1014,6 hPa 0,0 l/m 0,0 km/h (0 Bft) O-NO 65 0 min 0,025 mm 0,0 UV-I 0 W/m 12,3 C 14,8 C 0,0 km/h (0 Bft)
16.09.2014 22:10 14,7 C 85 % 1014,6 hPa 0,0 l/m 0,0 km/h (0 Bft) O-NO 65 0 min 0,000 mm 0,0 UV-I 0 W/m 12,2 C 14,7 C 0,0 km/h (0 Bft)
16.09.2014 22:15 14,6 C 85 % 1014,6 hPa 0,0 l/m 0,0 km/h (0 Bft) O-NO 65 0 min 0,000 mm 0,0 UV-I 0 W/m 12,1 C 14,6 C 0,0 km/h (0 Bft)
16.09.2014 22:20 14,6 C 85 % 1014,6 hPa 0,0 l/m 0,0 km/h (0 Bft) O-NO 65 0 min 0,000 mm 0,0 UV-I 0 W/m 12,1 C 14,6 C 0,0 km/h (0 Bft)
16.09.2014 22:25 14,4 C 86 % 1014,6 hPa 0,0 l/m 0,0 km/h (0 Bft) O-NO 65 0 min 0,000 mm 0,0 UV-I 0 W/m 12,1 C 14,4 C 0,0 km/h (0 Bft)
16.09.2014 22:30 14,4 C 87 % 1014,6 hPa 0,0 l/m 0,0 km/h (0 Bft) O-NO 65 0 min 0,000 mm 0,0 UV-I 0 W/m 12,3 C 14,4 C 0,0 km/h (0 Bft)
16.09.2014 22:35 14,3 C 87 % 1014,6 hPa 0,0 l/m 0,0 km/h (0 Bft) O-NO 65 0 min 0,000 mm 0,0 UV-I 0 W/m 12,2 C 14,3 C 0,0 km/h (0 Bft)
16.09.2014 22:40 14,3 C 87 % 1014,6 hPa 0,0 l/m 0,0 km/h (0 Bft) O-NO 65 0 min 0,000 mm 0,0 UV-I 0 W/m 12,2 C 14,3 C 0,0 km/h (0 Bft)
16.09.2014 22:45 14,3 C 87 % 1014,5 hPa 0,0 l/m 0,0 km/h (0 Bft) O-NO 65 0 min 0,000 mm 0,0 UV-I 0 W/m 12,2 C 14,3 C 0,0 km/h (0 Bft)
16.09.2014 22:50 14,2 C 87 % 1014,5 hPa 0,0 l/m 0,0 km/h (0 Bft) O-NO 65 0 min 0,000 mm 0,0 UV-I 0 W/m 12,1 C 14,2 C 0,0 km/h (0 Bft)
16.09.2014 22:55 14,1 C 87 % 1014,5 hPa 0,0 l/m 0,0 km/h (0 Bft) O-NO 65 0 min 0,000 mm 0,0 UV-I 0 W/m 12,0 C 14,1 C 0,0 km/h (0 Bft)
16.09.2014 23:00 14,0 C 87 % 1014,5 hPa 0,0 l/m 0,0 km/h (0 Bft) O-NO 65 0 min 0,000 mm 0,0 UV-I 0 W/m 11,9 C 14,0 C 0,0 km/h (0 Bft)
16.09.2014 23:05 13,9 C 87 % 1014,6 hPa 0,0 l/m 0,0 km/h (0 Bft) O-NO 65 0 min 0,000 mm 0,0 UV-I 0 W/m 11,8 C 13,9 C 0,0 km/h (0 Bft)
16.09.2014 23:10 13,8 C 87 % 1014,7 hPa 0,0 l/m 0,0 km/h (0 Bft) O-NO 65 0 min 0,000 mm 0,0 UV-I 0 W/m 11,7 C 13,8 C 0,0 km/h (0 Bft)
16.09.2014 23:15 13,7 C 87 % 1014,7 hPa 0,0 l/m 0,0 km/h (0 Bft) O-NO 65 0 min 0,000 mm 0,0 UV-I 0 W/m 11,6 C 13,7 C 0,0 km/h (0 Bft)
16.09.2014 23:20 13,5 C 88 % 1014,7 hPa 0,0 l/m 0,0 km/h (0 Bft) O-NO 65 0 min 0,000 mm 0,0 UV-I 0 W/m 11,6 C 13,5 C 0,0 km/h (0 Bft)
16.09.2014 23:25 13,4 C 88 % 1014,6 hPa 0,0 l/m 0,0 km/h (0 Bft) O-NO 65 0 min 0,000 mm 0,0 UV-I 0 W/m 11,5 C 13,4 C 0,0 km/h (0 Bft)
16.09.2014 23:30 13,3 C 89 % 1014,6 hPa 0,0 l/m 0,0 km/h (0 Bft) O-NO 65 0 min 0,000 mm 0,0 UV-I 0 W/m 11,5 C 13,3 C 0,0 km/h (0 Bft)
16.09.2014 23:35 13,3 C 89 % 1014,6 hPa 0,0 l/m 0,0 km/h (0 Bft) O-NO 65 0 min 0,000 mm 0,0 UV-I 0 W/m 11,5 C 13,3 C 0,0 km/h (0 Bft)
16.09.2014 23:40 13,3 C 89 % 1014,6 hPa 0,0 l/m 0,0 km/h (0 Bft) O-NO 65 0 min 0,000 mm 0,0 UV-I 0 W/m 11,5 C 13,3 C 0,0 km/h (0 Bft)
16.09.2014 23:45 13,2 C 89 % 1014,7 hPa 0,0 l/m 0,0 km/h (0 Bft) O-NO 65 0 min 0,000 mm 0,0 UV-I 0 W/m 11,4 C 13,2 C 0,0 km/h (0 Bft)
16.09.2014 23:50 13,2 C 89 % 1014,7 hPa 0,0 l/m 0,0 km/h (0 Bft) O-NO 65 0 min 0,000 mm 0,0 UV-I 0 W/m 11,4 C 13,2 C 0,0 km/h (0 Bft)
16.09.2014 23:55 13,1 C 89 % 1014,7 hPa 0,0 l/m 0,0 km/h (0 Bft) O-NO 65 0 min 0,000 mm 0,0 UV-I 0 W/m 11,3 C 13,1 C 0,0 km/h (0 Bft)
_ Min-Zeit 06:10 15:45 17:05 - 00:00 - - - - - - 06:10 06:10 00:05
Minimum _ 11,3 C 55 % 1014,1 hPa - 0,0 km/h (0 Bft) - - - - - - 10,5 C 11,3 C 0,0 km/h (0 Bft)
_ Max-Zeit 16:05 08:15 00:00 05:55 14:30 - - 07:55 16:05 13:10 14:15 12:50 15:45 16:05
Maximum _ 24,4 C 97 % 1016,3 hPa 0,2 l/m 11,3 km/h
O-NO (2 Bft)
- - 5 min 0,407 mm 4,1 UV-I 751 W/m 16,6 C 24,1 C 22,5 km/h
O (4 Bft)
Durchschnitt _ 17,1 C 81 % 1015,3 hPa #0,2 l/m 2,4 km/h (1 Bft) O-NO - #6:55 h #2,489 mm 1,9 UV-I 289 W/m 13,6 C 17,0 C 5,4 km/h (1 Bft)